Weather History for Hettinger, ND

Change the Weather History Date:

Sunday, February 17, 2013

  Actual Average Record
Temperature  
Mean Temperature 38 °F -  
Max Temperature 49 °F 32 °F 55 °F (2002)
Min Temperature 30 °F 10 °F -18 °F (2006)
Degree Days  
Heating Degree Days 25 44  
Month to date heating degree days 774  
Since 1 July heating degree days 5850  
Moisture  
Dew Point 26 °F    
Average Humidity 70    
Maximum Humidity 82    
Minimum Humidity 48    
Precipitation  
Precipitation T in 0.01 in 0.01 in (2003)
Month to date precipitation 0.03 0.28  
Year to date precipitation 0.06 0.59  
Sea Level Pressure  
Sea Level Pressure 29.64 in    
Wind  
Wind Speed 11 mph (West)    
Max Wind Speed 36 mph    
Max Gust Speed 45 mph    
Visibility 10 miles    
Events Snow    
T = Trace of Precipitation, MM = Missing Value Source: NWS Daily Summary

Daily Weather History Graph

Daily Weather History Graph

Search for Another Location

Airport:

Trip Planner

Search our weather history database for the weather conditions in past years. The results will help you decide how hot, cold, wet, or windy it might be!

Date:

Astronomy

Feb. 17, 2013 Rise Set
Actual Time 6:49 AM MST 5:20 PM MST
Civil Twilight 6:19 AM MST 5:50 PM MST
Nautical Twilight 5:44 AM MST 6:25 PM MST
Astronomical Twilight 5:09 AM MST 7:00 PM MST
Moon 10:18 AM MST (2/17) 12:43 AM MST (2/17)
Length of Visible Light 11h 31m
Length of Day
10h 30m
Waxing Crescent, 49% of the Moon is Illuminated
Feb 17
Waxing Crescent
Feb 17
First Quarter
Feb 25
Full
Mar 4
Last Quarter
Mar 11
New

Hourly Weather History & Observations

Time (MST) Temp. Windchill Dew Point Humidity Pressure Visibility Wind Dir Wind Speed Gust Speed Precip Events Conditions
12:53 AM 32.0 °F 27.5 °F 25.0 °F 75% 29.75 in 10.0 mi SSE 4.6 mph - N/A   Clear
1:53 AM 32.0 °F 26.4 °F 25.0 °F 75% 29.71 in 10.0 mi SW 5.8 mph - N/A   Clear
2:53 AM 33.1 °F - 25.0 °F 72% 29.69 in 10.0 mi Calm Calm - N/A   Clear
3:53 AM 32.0 °F - 24.1 °F 73% 29.66 in 10.0 mi Calm Calm - N/A   Clear
4:53 AM 35.1 °F 31.0 °F 24.1 °F 64% 29.64 in 10.0 mi SW 4.6 mph - N/A   Clear
6:53 AM 32.0 °F - 24.1 °F 73% 29.64 in 10.0 mi Calm Calm - N/A   Clear
7:53 AM 32.0 °F 28.7 °F 24.1 °F 73% 29.62 in 10.0 mi WSW 3.5 mph - N/A   Clear
8:53 AM 35.1 °F 31.0 °F 28.0 °F 76% 29.60 in 10.0 mi WSW 4.6 mph - N/A   Mostly Cloudy
9:53 AM 39.9 °F 33.4 °F 26.1 °F 58% 29.58 in 10.0 mi West 10.4 mph - N/A   Partly Cloudy
10:53 AM 44.1 °F 36.8 °F 27.0 °F 51% 29.55 in 10.0 mi West 16.1 mph - N/A   Mostly Cloudy
11:53 AM 46.9 °F - 28.0 °F 48% 29.54 in 10.0 mi WNW 16.1 mph - N/A   Scattered Clouds
1:53 PM 44.1 °F 34.4 °F 28.0 °F 53% 29.55 in 10.0 mi WNW 27.6 mph 33.4 mph N/A   Mostly Cloudy
2:53 PM 41.0 °F 30.2 °F 30.0 °F 65% 29.57 in 10.0 mi WNW 27.6 mph 38.0 mph N/A   Overcast
3:53 PM 41.0 °F 32.5 °F 28.9 °F 62% 29.57 in 10.0 mi West 17.3 mph 28.8 mph 0.00 in   Mostly Cloudy
4:53 PM 37.9 °F 26.3 °F 28.0 °F 68% 29.60 in 10.0 mi West 26.5 mph 36.8 mph N/A   Overcast
5:23 PM 35.6 °F 24.8 °F 26.6 °F 70% 29.56 in 10.0 mi WNW 19.6 mph 32.2 mph N/A   Mostly Cloudy
5:53 PM 35.1 °F 23.0 °F 28.0 °F 76% 29.64 in 10.0 mi WNW 24.2 mph 38.0 mph N/A   Overcast
6:53 PM 34.0 °F 22.1 °F 28.0 °F 79% 29.66 in 10.0 mi WNW 21.9 mph 33.4 mph N/A   Overcast
7:53 PM 34.0 °F 21.8 °F 28.0 °F 79% 29.68 in 9.0 mi WNW 23.0 mph 33.4 mph 0.00 in Snow Light Snow
8:53 PM 33.1 °F 19.6 °F 27.0 °F 78% 29.70 in 10.0 mi WNW 27.6 mph 38.0 mph 0.00 in   Overcast
9:06 PM 32.0 °F 18.9 °F 26.6 °F 80% 29.64 in 10.0 mi WNW 24.2 mph 34.5 mph N/A   Overcast
10:53 PM 30.9 °F 15.1 °F 26.1 °F 82% 29.73 in 8.0 mi NW 35.7 mph 44.9 mph 0.00 in   Overcast
11:53 PM 26.1 °F 9.3 °F 21.0 °F 81% 29.77 in 10.0 mi NW 31.1 mph 40.3 mph N/A   Overcast